Summerville, SC

11:26 AM EDT on April 27, 2017 (GMT -0400)
Summerville

Weather History for KDYB - April, 2013

Change the Weather History Date:

Monday, April 22, 2013

  Actual Average (KCHS) Record (KCHS)
Temperature  
Mean Temperature 60 °F -  
Max Temperature 69 °F 79 °F 91 °F (1988)
Min Temperature 50 °F 54 °F 37 °F (1950)
Degree Days  
Heating Degree Days 6    
Growing Degree Days 10 (Base 50)    
Moisture  
Dew Point 44 °F    
Average Humidity 63    
Maximum Humidity 88    
Minimum Humidity 46    
Precipitation  
Precipitation 0.00 in - - ()
Sea Level Pressure  
Sea Level Pressure 30.23 in    
Wind  
Wind Speed 10 mph (NNE)    
Max Wind Speed 18 mph    
Max Gust Speed 25 mph    
Visibility 10 miles    
Events Rain    
Averages and records for this station are not official NWS values.
T = Trace of Precipitation, MM = Missing Value Source: NWS Daily Summary

Daily Weather History Graph

Daily Weather History Graph

Search for Another Location

Airport or City:

Trip Planner

Search our weather history database for the weather conditions in past years. The results will help you decide how hot, cold, wet, or windy it might be!

Date:

Astronomy

Apr. 22, 2013 Rise Set
Actual Time 6:42 AM EDT 7:56 PM EDT
Civil Twilight 6:16 AM EDT 8:22 PM EDT
Nautical Twilight 5:46 AM EDT 8:53 PM EDT
Astronomical Twilight 5:14 AM EDT 9:25 PM EDT
Moon 4:53 PM EDT (4/22) 4:25 AM EDT (4/22)
Length of Visible Light 14h 05m
Length of Day
13h 14m
Waxing Gibbous, 87% of the Moon is Illuminated
Apr 22
Waxing Gibbous
Apr 25
Full
May 2
Last Quarter
May 9
New
May 18
First Quarter

Hourly Weather History & Observations

Time (EDT) Temp. Dew Point Humidity Pressure Visibility Wind Dir Wind Speed Gust Speed Precip Events Conditions
12:15 AM 57.2 °F 41.0 °F 55% 30.31 in 10.0 mi NE 8.1 mph - N/A   Mostly Cloudy
12:35 AM 55.4 °F 39.2 °F 54% 30.30 in 10.0 mi NNE 6.9 mph - N/A   Scattered Clouds
12:55 AM 55.4 °F 41.0 °F 58% 30.30 in 10.0 mi NNE 5.8 mph - N/A   Scattered Clouds
1:15 AM 55.4 °F 41.0 °F 58% 30.29 in 10.0 mi NE 9.2 mph - N/A   Scattered Clouds
1:35 AM 53.6 °F 41.0 °F 62% 30.28 in 10.0 mi NE 6.9 mph - N/A   Clear
1:55 AM 53.6 °F 41.0 °F 62% 30.28 in 10.0 mi NNE 9.2 mph 18.4 mph N/A   Scattered Clouds
2:15 AM 53.6 °F 41.0 °F 62% 30.28 in 10.0 mi NNE 8.1 mph - N/A   Overcast
2:35 AM 53.6 °F 41.0 °F 62% 30.27 in 10.0 mi NE 10.4 mph 18.4 mph N/A   Overcast
2:55 AM 53.6 °F 41.0 °F 62% 30.26 in 10.0 mi NNE 9.2 mph 20.7 mph N/A   Overcast
3:15 AM 53.6 °F 41.0 °F 62% 30.26 in 10.0 mi NNE 18.4 mph - N/A   Overcast
3:35 AM 53.6 °F 39.2 °F 58% 30.26 in 10.0 mi NE 9.2 mph 16.1 mph N/A   Overcast
3:55 AM 53.6 °F 37.4 °F 54% 30.25 in 10.0 mi NNE 5.8 mph - N/A Rain Light Rain
4:15 AM 51.8 °F 37.4 °F 58% 30.25 in 10.0 mi NNE 13.8 mph 20.7 mph N/A   Scattered Clouds
4:35 AM 51.8 °F 37.4 °F 58% 30.25 in 10.0 mi NNE 11.5 mph 16.1 mph N/A   Mostly Cloudy
4:55 AM 51.8 °F 35.6 °F 54% 30.25 in 10.0 mi NNE 12.7 mph 19.6 mph N/A   Scattered Clouds
5:15 AM 50.0 °F 35.6 °F 58% 30.26 in 10.0 mi NNE 10.4 mph - N/A   Clear
5:35 AM 50.0 °F 35.6 °F 58% 30.26 in 10.0 mi NNE 12.7 mph 17.3 mph N/A   Scattered Clouds
5:55 AM 50.0 °F 35.6 °F 58% 30.25 in 10.0 mi NNE 11.5 mph 18.4 mph N/A   Scattered Clouds
6:15 AM 50.0 °F 35.6 °F 58% 30.26 in 10.0 mi NNE 10.4 mph - N/A   Scattered Clouds
6:35 AM 50.0 °F 37.4 °F 62% 30.27 in 10.0 mi NNE 11.5 mph 17.3 mph N/A   Scattered Clouds
6:55 AM 50.0 °F 37.4 °F 62% 30.27 in 10.0 mi NNE 9.2 mph - N/A   Clear
7:15 AM 50.0 °F 41.0 °F 71% 30.27 in 10.0 mi NNE 10.4 mph 17.3 mph N/A   Clear
7:35 AM 50.0 °F 41.0 °F 71% 30.28 in 10.0 mi NNE 9.2 mph 18.4 mph N/A   Clear
7:55 AM 50.0 °F 41.0 °F 71% 30.28 in 10.0 mi NNE 11.5 mph 16.1 mph N/A   Clear
8:15 AM 50.0 °F 42.8 °F 76% 30.29 in 10.0 mi North 10.4 mph - N/A   Clear
8:35 AM 51.8 °F 42.8 °F 71% 30.28 in 10.0 mi North 13.8 mph 20.7 mph N/A   Scattered Clouds
8:55 AM 50.0 °F 42.8 °F 76% 30.27 in 10.0 mi NNE 18.4 mph 25.3 mph N/A   Scattered Clouds
9:15 AM - - N/A% - - North - - N/A   Unknown
9:35 AM 51.8 °F 44.6 °F 76% 30.27 in - North 11.5 mph 19.6 mph N/A   Clear
9:55 AM 51.8 °F 44.6 °F 76% 30.25 in 10.0 mi NNE 16.1 mph 23.0 mph N/A   Clear
10:15 AM 53.6 °F 44.6 °F 72% 30.29 in 10.0 mi North 13.8 mph 18.4 mph N/A   Clear
10:35 AM 53.6 °F 44.6 °F 72% 30.28 in 10.0 mi NNE 9.2 mph 16.1 mph N/A   Clear
10:55 AM 53.6 °F 44.6 °F 72% 30.28 in 10.0 mi North 13.8 mph 19.6 mph N/A   Clear
11:15 AM 55.4 °F 44.6 °F 67% 30.28 in 10.0 mi North 13.8 mph 18.4 mph N/A   Clear
11:35 AM 55.4 °F 44.6 °F 67% 30.28 in 10.0 mi North 11.5 mph 17.3 mph N/A   Clear
11:55 AM 59.0 °F 44.6 °F 59% 30.27 in 10.0 mi NNE 12.7 mph 17.3 mph N/A   Clear
12:15 PM 60.8 °F 46.4 °F 59% 30.27 in 10.0 mi North 13.8 mph 18.4 mph N/A   Clear
12:35 PM 60.8 °F 44.6 °F 55% 30.27 in 10.0 mi NNE 15.0 mph 18.4 mph N/A   Scattered Clouds
12:55 PM 62.6 °F 44.6 °F 52% 30.26 in 10.0 mi North 11.5 mph 17.3 mph N/A   Scattered Clouds
1:15 PM 62.6 °F 46.4 °F 55% 30.24 in 10.0 mi NNE 13.8 mph 19.6 mph N/A   Scattered Clouds
1:35 PM 64.4 °F 44.6 °F 49% 30.23 in 10.0 mi North 12.7 mph 20.7 mph N/A   Clear
1:55 PM 64.4 °F 46.4 °F 52% 30.22 in 10.0 mi NNE 9.2 mph 18.4 mph N/A   Clear
2:15 PM 64.4 °F 46.4 °F 52% 30.21 in 10.0 mi North 12.7 mph 19.6 mph N/A   Clear
2:35 PM 66.2 °F 46.4 °F 49% 30.20 in 10.0 mi NNE 11.5 mph 23.0 mph N/A   Clear
2:55 PM 68.0 °F 48.2 °F 49% 30.20 in 10.0 mi North 9.2 mph 19.6 mph N/A   Clear
3:15 PM 68.0 °F 48.2 °F 49% 30.19 in 10.0 mi NNW 12.7 mph 20.7 mph N/A   Clear
3:35 PM 69.8 °F 50.0 °F 49% 30.18 in 10.0 mi North 13.8 mph 18.4 mph N/A   Clear
3:55 PM 69.8 °F 50.0 °F 49% 30.17 in 7.0 mi North 12.7 mph 18.4 mph N/A   Clear
4:15 PM 69.8 °F 50.0 °F 49% 30.17 in 10.0 mi North 13.8 mph 18.4 mph N/A   Clear
4:35 PM 69.8 °F 50.0 °F 49% 30.17 in 10.0 mi NNW 11.5 mph 18.4 mph N/A   Clear
4:55 PM 69.8 °F 50.0 °F 49% 30.16 in 10.0 mi North 12.7 mph 17.3 mph N/A   Clear
5:15 PM 69.8 °F 48.2 °F 46% 30.15 in 10.0 mi North 12.7 mph - N/A   Clear
5:35 PM 69.8 °F 48.2 °F 46% 30.15 in 10.0 mi North 10.4 mph 18.4 mph N/A   Clear
5:55 PM 68.0 °F 48.2 °F 49% 30.15 in 10.0 mi North 8.1 mph - N/A   Clear
6:15 PM 68.0 °F 48.2 °F 49% 30.15 in 10.0 mi North 10.4 mph 17.3 mph N/A   Clear
6:55 PM 66.2 °F 48.2 °F 52% 30.15 in 10.0 mi North 9.2 mph - N/A   Clear
7:15 PM 64.4 °F 48.2 °F 56% 30.15 in 10.0 mi North 9.2 mph - N/A   Clear
7:55 PM 60.8 °F 50.0 °F 68% 30.16 in 10.0 mi NNE 3.5 mph - N/A   Clear
8:15 PM 59.0 °F 50.0 °F 72% 30.17 in 10.0 mi NNE 3.5 mph - N/A   Clear
8:35 PM 59.0 °F 50.0 °F 72% 30.17 in 10.0 mi North 3.5 mph - N/A   Clear
8:55 PM 57.2 °F 50.0 °F 77% 30.18 in 10.0 mi North 3.5 mph - N/A   Clear
9:15 PM 55.4 °F 50.0 °F 82% 30.18 in 10.0 mi Calm Calm - N/A   Clear
9:35 PM 55.4 °F 50.0 °F 82% 30.19 in 10.0 mi Calm Calm - N/A   Clear
9:55 PM 53.6 °F 50.0 °F 88% 30.20 in 10.0 mi Calm Calm - N/A   Clear
10:15 PM 53.6 °F 50.0 °F 88% 30.20 in 10.0 mi North 3.5 mph - N/A   Clear
10:35 PM 53.6 °F 50.0 °F 88% 30.20 in 10.0 mi NNE 3.5 mph - N/A   Clear
10:55 PM 53.6 °F 50.0 °F 88% 30.20 in 10.0 mi NNE 3.5 mph - N/A   Clear
11:15 PM 53.6 °F 48.2 °F 82% 30.20 in 10.0 mi NNE 3.5 mph - N/A   Clear
11:35 PM 53.6 °F 48.2 °F 82% 30.19 in 10.0 mi NE 3.5 mph - N/A   Clear
11:55 PM 51.8 °F 48.2 °F 88% 30.19 in 10.0 mi Calm Calm - N/A   Clear